Date String (YYYY-MM-DD hh:mm:ss) UTC,Instrument flags,Ambient pressure (hPa),Sample flow (lpm),Bypass flow (lpm),Sample temperature (°C),Ambient temperature (°C),ASC tube jacket temperature (°C),LED temperature (°C),Box temperature (°C),Sample RH (%),Span deviation,Mass concentration (μg/m³),Mass concentration (μg/m³),Mass concentration (μg/m³)
DateTimeUTC,F1_M11,P_M11,Q1_M11,Q2_M11,T1_M11,T2_M11,T3_M11,T4_M11,T5_M11,U1_M11,ZSPAN_M11,X0_M11,X2_M11,X1_M11
2023-02-12 16:00:00,,0823.8,5.01,0.00,22.1,20.2,00.0,31.1,23.8,11.9,0000.0,0009.27,0005.86,0005.41
2023-02-12 16:01:00,,0823.8,5.02,0.00,22.1,20.2,00.0,31.1,23.8,12.0,0000.0,0009.15,0005.82,0005.40
2023-02-12 16:02:00,,0823.8,5.02,0.00,22.1,20.2,00.0,31.1,23.8,12.1,0000.0,0009.12,0005.79,0005.38
2023-02-12 16:03:00,,0823.8,4.96,0.00,22.1,21.2,00.0,31.0,24.0,12.0,0000.0,0009.06,0005.79,0005.37
2023-02-12 16:04:00,,0823.9,5.00,0.00,22.3,22.8,00.0,31.0,24.3,11.9,0000.0,0009.08,0005.79,0005.37
2023-02-12 16:05:00,,0823.9,4.95,0.00,22.4,23.1,00.0,31.1,24.5,11.3,0000.0,0008.75,0005.80,0005.38
2023-02-12 16:06:00,,0823.9,5.04,0.00,22.4,22.6,00.0,31.1,24.5,11.3,0000.0,0008.63,0005.77,0005.38
2023-02-12 16:07:00,,0823.9,4.99,0.00,22.4,22.1,00.0,31.2,24.4,11.1,0000.0,0008.61,0005.76,0005.36
2023-02-12 16:08:00,,0823.9,5.00,0.00,22.4,21.8,00.0,31.2,24.3,11.3,0000.0,0008.67,0005.77,0005.36
2023-02-12 16:09:00,,0823.8,5.02,0.00,22.5,21.5,00.0,31.2,24.3,11.2,0000.0,0008.78,0005.78,0005.35
2023-02-12 16:10:00,,0823.8,4.99,0.00,22.5,21.3,00.0,31.2,24.3,11.4,0000.0,0008.89,0005.75,0005.34
2023-02-12 16:11:00,,0823.8,5.01,0.00,22.4,21.1,00.0,31.2,24.2,11.4,0000.0,0009.01,0005.74,0005.34
2023-02-12 16:12:00,,0823.8,5.01,0.00,22.4,21.0,00.0,31.2,24.2,11.7,0000.0,0008.99,0005.74,0005.34
2023-02-12 16:13:00,,0823.8,4.99,0.00,22.4,20.9,00.0,31.2,24.1,11.5,0000.0,0008.96,0005.75,0005.35
2023-02-12 16:14:00,,0823.8,4.98,0.00,22.4,20.8,00.0,31.2,24.1,11.8,0000.0,0008.97,0005.75,0005.36
2023-02-12 16:15:00,,0823.7,5.02,0.00,22.4,20.7,00.0,31.2,24.1,11.7,0000.0,0008.92,0005.73,0005.36
2023-02-12 16:16:00,,0823.8,4.99,0.00,22.4,20.7,00.0,31.2,24.1,11.6,0000.0,0008.85,0005.71,0005.35
2023-02-12 16:17:00,,0823.7,4.99,0.00,22.3,20.6,00.0,31.2,24.1,11.7,0000.0,0008.89,0005.73,0005.36
2023-02-12 16:18:00,,0823.8,4.99,0.00,22.3,20.6,00.0,31.2,24.1,11.7,0000.0,0009.01,0005.73,0005.37
2023-02-12 16:19:00,,0823.7,4.99,0.00,22.3,20.6,00.0,31.2,24.0,11.6,0000.0,0009.30,0005.74,0005.39
2023-02-12 16:20:00,,0823.7,5.00,0.00,22.3,20.5,00.0,31.2,24.0,11.5,0000.0,0009.35,0005.74,0005.41
2023-02-12 16:21:00,,0823.6,4.99,0.00,22.2,20.4,00.0,31.2,23.9,11.6,0000.0,0009.16,0005.75,0005.42
2023-02-12 16:22:00,,0823.7,5.02,0.00,22.2,20.3,00.0,31.2,23.9,11.7,0000.0,0009.34,0005.75,0005.42
2023-02-12 16:23:00,,0823.7,5.00,0.00,22.2,20.3,00.0,31.2,23.9,11.9,0000.0,0009.45,0005.75,0005.42
2023-02-12 16:24:00,,0823.8,5.01,0.00,22.2,20.3,00.0,31.2,23.9,11.9,0000.0,0009.83,0005.77,0005.42
2023-02-12 16:25:00,,0823.8,4.99,0.00,22.2,20.3,00.0,31.1,23.9,11.7,0000.0,0009.93,0005.77,0005.42
2023-02-12 16:26:00,,0823.8,5.01,0.00,22.1,20.2,00.0,31.1,23.8,11.7,0000.0,0009.97,0005.80,0005.44
2023-02-12 16:27:00,,0823.9,5.00,0.00,22.1,20.2,00.0,31.1,23.8,11.7,0000.0,0010.11,0005.86,0005.48
2023-02-12 16:28:00,,0824.0,5.00,0.00,22.1,20.2,00.0,31.1,23.8,11.7,0000.0,0010.21,0005.88,0005.52
2023-02-12 16:29:00,,0823.9,4.98,0.00,22.1,20.1,00.0,31.1,23.7,11.7,0000.0,0011.01,0005.93,0005.56
2023-02-12 16:30:00,,0824.0,4.99,0.00,22.0,20.1,00.0,31.0,23.8,11.8,0000.0,0011.05,0005.94,0005.57
2023-02-12 16:31:00,,0824.0,4.98,0.00,22.0,20.2,00.0,31.0,23.7,12.0,0000.0,0010.77,0005.99,0005.60
2023-02-12 16:32:00,,0824.0,5.01,0.00,22.0,20.2,00.0,31.0,23.7,12.3,0000.0,0010.64,0006.02,0005.63
2023-02-12 16:33:00,,0824.0,4.97,0.00,22.0,20.3,00.0,31.0,23.7,12.5,0000.0,0010.69,0006.03,0005.64
2023-02-12 16:34:00,,0824.0,4.99,0.00,22.0,20.3,00.0,31.0,23.8,12.7,0000.0,0010.56,0006.08,0005.68
2023-02-12 16:35:00,,0824.1,5.01,0.00,22.0,20.4,00.0,31.0,23.8,12.5,0000.0,0010.36,0006.10,0005.70
2023-02-12 16:36:00,,0824.1,4.98,0.00,22.0,20.4,00.0,31.0,23.8,12.5,0000.0,0010.11,0006.09,0005.71
2023-02-12 16:37:00,,0824.1,5.01,0.00,22.0,20.6,00.0,30.9,23.8,12.5,0000.0,0009.84,0006.09,0005.72
2023-02-12 16:38:00,,0824.1,5.02,0.00,22.1,22.0,00.0,30.9,24.1,12.5,0000.0,0009.84,0006.11,0005.74
2023-02-12 16:39:00,,0824.2,4.96,0.00,22.3,23.2,00.0,30.9,24.4,12.5,0000.0,0009.83,0006.12,0005.74
2023-02-12 16:40:00,,0824.3,4.97,0.00,22.4,23.0,00.0,31.0,24.5,12.1,0000.0,0009.76,0006.12,0005.72
2023-02-12 16:41:00,,0824.3,4.98,0.00,22.4,22.6,00.0,31.1,24.5,11.9,0000.0,0008.99,0006.09,0005.72
2023-02-12 16:42:00,,0824.2,5.00,0.00,22.5,22.2,00.0,31.1,24.4,12.0,0000.0,0008.88,0006.10,0005.73
2023-02-12 16:43:00,,0824.3,5.03,0.00,22.5,21.9,00.0,31.1,24.4,12.3,0000.0,0008.92,0006.13,0005.74
2023-02-12 16:44:00,,0824.2,4.97,0.00,22.5,21.7,00.0,31.2,24.4,12.4,0000.3,0008.99,0006.17,0005.77
2023-02-12 16:45:00,,0824.2,5.01,0.00,22.5,21.6,00.0,31.2,24.4,12.2,0001.1,0009.14,0006.19,0005.79
2023-02-12 16:46:00,,0824.2,4.99,0.00,22.5,21.4,00.0,31.2,24.3,12.0,0002.0,0009.19,0006.24,0005.81
2023-02-12 16:47:00,,0824.2,4.99,0.00,22.5,21.3,00.0,31.2,24.3,11.9,0001.6,0009.29,0006.28,0005.83
2023-02-12 16:48:00,,0824.3,4.99,0.00,22.5,21.3,00.0,31.2,24.3,11.9,0000.0,0009.42,0006.31,0005.85
2023-02-12 16:49:00,,0824.3,5.00,0.00,22.5,21.2,00.0,31.3,24.3,12.1,0000.0,0009.41,0006.31,0005.84
2023-02-12 16:50:00,,0824.3,4.98,0.00,22.5,21.1,00.0,31.3,24.3,11.9,0000.0,0009.42,0006.29,0005.84
2023-02-12 16:51:00,,0824.3,4.98,0.00,22.5,21.1,00.0,31.3,24.3,11.8,0000.0,0009.39,0006.25,0005.81
2023-02-12 16:52:00,,0824.4,5.00,0.00,22.5,21.0,00.0,31.3,24.3,11.9,0000.0,0009.49,0006.27,0005.79
2023-02-12 16:53:00,,0824.4,4.98,0.00,22.5,21.0,00.0,31.3,24.3,12.0,0000.0,0009.60,0006.21,0005.73
2023-02-12 16:54:00,,0824.5,4.98,0.00,22.5,21.0,00.0,31.3,24.3,11.9,0000.0,0009.58,0006.13,0005.68
2023-02-12 16:55:00,,0824.4,5.02,0.00,22.5,21.0,00.0,31.3,24.3,11.9,0000.0,0009.44,0006.07,0005.63
2023-02-12 16:56:00,,0824.4,5.01,0.00,22.5,21.0,00.0,31.3,24.3,11.9,0000.0,0009.33,0006.02,0005.57
2023-02-12 16:57:00,,0824.4,5.02,0.00,22.5,21.0,00.0,31.3,24.3,12.1,0000.0,0009.30,0005.97,0005.53
2023-02-12 16:58:00,,0824.4,5.01,0.00,22.5,21.0,00.0,31.3,24.3,12.0,0000.0,0009.26,0005.92,0005.48
2023-02-12 16:59:00,,0824.4,5.00,0.00,22.5,21.0,00.0,31.3,24.3,11.9,0000.0,0009.12,0005.86,0005.43
